Location: Cit� Maubeuge
(50.9517°N, 1.8783°E)
Time: 12:53:42
(UTC+00:00)

Daily predictions for brighter satellites

Satellite Brightness Start Highest point End
(mag) Time Altitude Azimuth Time Altitude Azimuth Time Altitude Azimuth
Meteor 1-24 Rocket 4.2 17:02:39 10° SSW 17:07:56 62° WNW 17:13:27 10° N
YAOGAN 6 3.2 17:07:30 10° SE 17:10:50 34° ENE 17:14:09 10° N
Starlink V 3.2 17:07:57 10° W 17:11:11 57° N 17:14:24 10° E
H-2A R/B 2.9 17:07:41 10° SSE 17:11:34 86° WSW 17:15:31 10° NNW
ERBS 2.3 17:09:46 10° WSW 17:13:06 77° NNW 17:16:26 10° ENE
Starlink H 3.2 17:10:12 10° W 17:13:25 57° N 17:16:38 10° E
Cosmos 2227 Rocket 2.4 17:08:46 10° S 17:14:16 56° ESE 17:19:48 10° NE
IRS-1C Rocket 4.2 17:09:57 10° SSE 17:15:13 89° WSW 17:20:31 10° NNW
Starlink F 3.2 17:12:25 10° WNW 17:15:39 57° N 17:18:52 10° E
Cosmos 1602 Rocket 3.8 17:11:42 10° SSW 17:16:04 74° WNW 17:20:26 10° N
NOAA 12 4.1 17:12:28 10° SSE 17:17:41 72° ENE 17:22:56 10° NNW
Starlink G 3.2 17:14:39 10° WNW 17:17:53 57° N 17:21:06 10° E
Cosmos 2341 Rocket 4.1 17:12:53 10° S 17:19:07 61° E 17:25:21 10° NNE
Starlink L 3.2 17:16:53 10° WNW 17:20:06 58° N 17:23:18 10° E
SMAP 3.3 17:15:35 10° S 17:20:14 77° WSW 17:24:56 10° NNW
Starlink A 3.2 17:19:07 10° WNW 17:22:21 58° N 17:25:28 11° E
PSLV R/B 3.9 17:20:25 10° NNE 17:24:32 87° ESE 17:28:39 10° SSW
Starlink R 3.2 17:21:22 10° WNW 17:24:36 58° N 17:27:37 11° E
Starlink K 3.2 17:23:35 10° WNW 17:26:49 58° N 17:29:46 12° E
Cosmos 1626 3.4 17:23:22 10° SSW 17:26:54 42° WNW 17:30:28 10° N
Cosmos 1943 4.1 17:22:40 10° NNW 17:27:33 29° NE 17:32:25 10° ESE
Starlink M 3.2 17:25:48 10° WNW 17:29:03 59° N 17:31:53 13° E
Cosmos 1339 Rocket 4.5 17:23:22 10° N 17:29:24 61° ENE 17:35:30 10° SSE
Cosmos 1953 Rocket 3.9 17:25:51 10° SSE 17:30:07 45° E 17:34:25 10° NNE
CZ-4B R/B 3.9 17:28:04 10° NNW 17:30:15 18° WNW 17:32:26 10° WSW
Cosmos 1689 Rocket 4.1 17:27:40 10° N 17:30:16 28° WNW 17:32:52 10° SW
Iridium 96 3.6 17:28:28 10° N 17:30:52 52° E 17:33:21 10° SSE
COSMO-SKYMED 1 3.3 17:27:18 10° NNE 17:31:16 33° E 17:35:12 10° SSE
Cosmos 1842 Rocket 4.4 17:27:37 10° N 17:31:32 28° ENE 17:35:25 10° SE
Cosmos 1328 4.4 17:27:57 10° SSE 17:31:39 36° E 17:35:21 10° NNE
Meteor 1-21 Rocket 4.2 17:28:06 10° S 17:33:44 75° E 17:39:31 10° NNE
CZ-4 R/B 1.8 17:30:12 10° SE 17:34:05 42° ENE 17:38:03 10° N
Cosmos 1758 Rocket 3.5 17:29:47 10° S 17:34:05 79° E 17:38:26 10° NNE
Starlink AR 2.6 17:32:31 10° WNW 17:35:09 56° N 17:37:04 16° E
ATLAS CENTAUR R/B 1.2 17:33:11 10° NW 17:37:20 89° NE 17:41:08 10° SE
FengYun 1-2 T 4.3 17:31:48 10° SSE 17:37:25 70° ENE 17:43:04 10° NNW
Cosmos 2218 Rocket 4.1 17:35:06 10° SSE 17:41:17 56° E 17:47:32 10° NNE
CSL-04 Debris 4.4 17:38:10 10° SE 17:43:18 47° ENE 17:48:29 10° N
Shenzhou-11 Module 4.3 17:45:24 10° SW 17:47:05 15° S 17:48:45 10° SE
SL-8 R/B 4.1 17:42:29 10° WSW 17:47:11 53° SSE 17:50:52 16° E
Cosmos 2251 Rocket 3.6 17:43:42 10° NNW 17:49:02 89° W 17:54:24 10° SSE
Cosmos 1959 Rocket 4.5 17:44:03 10° S 17:50:05 62° E 17:56:07 10° NNE
USA 116 4.3 17:53:20 22° E 17:53:41 22° E 17:56:13 10° SSE
Cosmos 1703 3.2 17:52:25 10° S 17:56:20 63° E 18:00:18 10° NNE
Cosmos 1825 Rocket 3.8 17:52:02 10° SSW 17:56:21 72° WNW 18:00:41 10° N
H-2A R/B 3.3 17:55:39 18° ENE 17:56:53 20° NE 18:00:33 10° N
ATLAS 5 CENTAUR R/B 3.6 17:56:01 10° WNW 17:59:43 21° N 18:03:10 12° NE
Cosmos 1356 Rocket 3.3 17:56:09 10° N 18:00:14 68° ENE 18:04:19 10° SSE
Cosmos 1455 2.8 17:58:09 10° NNW 18:01:54 57° W 18:05:36 10° S
Envisat 3.8 17:57:01 10° S 18:01:59 55° W 18:07:01 10° NNW
CSL-04 Rocket 3.7 17:56:57 10° SSE 18:02:25 65° ENE 18:07:56 10° N
Cosmos 2221 2.9 17:58:44 10° N 18:02:48 40° ENE 18:06:51 10° SE
Cosmos 2366 rocket 3.9 18:01:52 10° S 18:08:06 79° E 18:14:27 10° NNE
USA 267 3.3 18:03:50 17° ENE 18:09:06 90° N 18:15:40 10° WSW
Cosmos-2242 4.3 18:05:10 10° NNW 18:09:15 42° W 18:13:17 10° SSW
Starlink T 2.9 18:07:37 10° WNW 18:10:49 73° NNE 18:11:56 37° E
Starlink N 2.9 18:09:38 10° WNW 18:12:50 74° NNE 18:13:52 39° E
Starlink Q 2.8 18:11:52 10° WNW 18:15:06 76° NNE 18:16:03 42° E
Starlink P 2.8 18:13:59 10° WNW 18:17:12 77° NNE 18:18:04 45° E
ISS -3.8 18:14:56 10° WSW 18:18:20 88° S 18:19:20 43° E
Starlink U 2.8 18:16:04 10° WNW 18:19:18 78° NNE 18:20:05 48° E
SKYMED 2 3.6 18:15:06 10° NNE 18:19:29 87° WNW 18:23:50 10° SSW
Okean-O 4.0 18:15:24 10° S 18:19:35 41° W 18:23:49 10° NNW
Cosmos 407 Rocket 3.6 18:15:08 10° NNW 18:20:19 52° ENE 18:24:47 13° SE
Cosmos 1190 Rocket 4.3 18:15:59 10° NNW 18:21:07 47° ENE 18:24:43 19° SE
Starlink B 2.8 18:18:11 10° WNW 18:21:26 80° NNE 18:22:08 51° E
Cosmos 1869 3.8 18:18:01 10° N 18:21:46 36° ENE 18:22:06 36° E
CZ-2D R/B 3.1 18:18:49 10° SSE 18:22:38 76° ENE 18:26:32 10° N
Cosmos 1939 Rocket 2.7 18:23:08 10° SSE 18:27:05 85° ENE 18:31:09 10° NNW
NOSS 3-2 (A) 4.4 18:23:53 10° SSE 18:28:18 24° ESE 18:28:18 24° ESE
SL-16 R/B 3.7 18:24:02 10° NW 18:29:13 38° WSW 18:34:23 10° S
Starlink AS 2.5 18:26:40 10° WNW 18:29:37 88° N 18:29:43 83° E
Starlink BA 2.5 18:26:54 10° WNW 18:29:51 88° NNE 18:29:55 84° E
Starlink AU 2.5 18:27:07 10° WNW 18:30:03 88° NNE 18:30:07 85° E
Starlink AT 2.5 18:27:21 10° WNW 18:30:17 88° N 18:30:21 85° E
Starlink BB 2.5 18:27:34 10° WNW 18:30:31 88° NNE 18:30:34 86° E
Starlink BC 2.5 18:27:47 10° WNW 18:30:43 89° NNE 18:30:46 87° E
Starlink BK 2.5 18:28:00 10° WNW 18:30:57 89° NNE 18:30:59 87° E
Starlink AY 2.5 18:28:15 10° WNW 18:31:11 89° NNE 18:31:13 88° E
Starlink AW 2.5 18:28:26 10° WNW 18:31:23 89° NE 18:31:24 88° E
Starlink BJ 2.5 18:28:41 10° WNW 18:31:38 89° NE 18:31:38 89° NE
Starlink AV 2.5 18:28:56 10° WNW 18:31:53 90° ENE 18:31:53 90° ENE
Starlink BD 2.6 18:29:09 10° WNW 18:32:06 90° N 18:32:06 90° N
Starlink BE 2.6 18:29:21 10° WNW 18:32:18 90° W 18:32:19 89° ESE
Starlink BM 2.6 18:29:36 10° WNW 18:32:31 88° W 18:32:31 88° W
Starlink AX 2.6 18:29:51 10° WNW 18:32:45 87° W 18:32:45 87° W
Starlink BH 2.6 18:30:01 10° WNW 18:32:56 87° W 18:32:56 87° W
Starlink AZ 2.6 18:30:15 10° WNW 18:33:09 86° W 18:33:09 86° W
Starlink BG 2.6 18:30:29 10° WNW 18:33:22 86° W 18:33:22 86° W
Starlink BF 2.6 18:30:42 10° WNW 18:33:35 85° W 18:33:35 85° W
Starlink BL 2.6 18:30:53 10° WNW 18:33:49 86° W 18:33:49 86° W
Starlink AH 2.6 18:31:08 10° WNW 18:34:00 84° W 18:34:00 84° W
Starlink AC 2.6 18:31:24 10° WNW 18:34:15 83° W 18:34:15 83° W
Starlink X 2.6 18:31:37 10° WNW 18:34:27 83° W 18:34:27 83° W
Starlink AE 2.6 18:31:46 10° WNW 18:34:40 84° W 18:34:40 84° W
Starlink AQ 2.7 18:31:55 10° WNW 18:34:46 83° W 18:34:46 83° W
Starlink Z 2.7 18:32:02 10° WNW 18:34:52 81° W 18:34:52 81° W
Starlink AK 2.7 18:32:17 10° WNW 18:35:06 81° W 18:35:06 81° W
Cosmos 1727 Rocket 4.2 18:29:05 10° NNW 18:35:15 72° W 18:41:23 10° S
Starlink AL 2.7 18:32:31 10° WNW 18:35:20 80° W 18:35:20 80° W
Starlink AD 2.7 18:32:45 10° WNW 18:35:33 79° W 18:35:33 79° W
Starlink Y 2.7 18:33:12 10° WNW 18:35:58 78° W 18:35:58 78° W
YAOGAN 1 3.1 18:32:01 10° S 18:36:17 62° WSW 18:40:36 10° NNW
Cosmos 44 3.8 18:31:56 10° WSW 18:36:19 49° NW 18:38:46 23° NNE
Starlink AG 2.7 18:33:25 10° WNW 18:36:11 78° W 18:36:11 78° W
Starlink W 2.7 18:33:34 10° WNW 18:36:23 79° W 18:36:23 79° W
Starlink D 2.8 18:33:18 10° WNW 18:36:34 89° S 18:36:42 81° ESE
Starlink AJ 2.7 18:33:51 10° WNW 18:36:36 76° W 18:36:36 76° W
Starlink AM 2.8 18:34:19 10° WNW 18:37:03 75° W 18:37:03 75° W
Cosmos 2227 4.5 18:31:51 10° S 18:37:16 45° ESE 18:39:03 34° ENE
Starlink AP 2.8 18:34:31 10° WNW 18:37:15 75° W 18:37:15 75° W
Starlink AA 2.8 18:34:46 10° WNW 18:37:30 74° W 18:37:30 74° W
Starlink AF 2.8 18:34:58 10° WNW 18:37:41 73° W 18:37:41 73° W
Starlink AB 2.8 18:35:13 10° WNW 18:37:55 73° W 18:37:55 73° W
Starlink AN 2.8 18:35:26 10° WNW 18:38:07 72° W 18:38:07 72° W
Starlink S 2.8 18:35:31 10° WNW 18:38:46 87° SSW 18:38:50 85° SE
Cosmos 2082 4.1 18:34:19 10° SW 18:39:53 61° NW 18:44:54 13° NNE
Starlink C 2.9 18:37:40 10° WNW 18:40:55 86° SSW 18:40:55 86° SSW
SJ-11-01 4.3 18:39:25 29° SE 18:41:37 53° ENE 18:46:13 10° N
Cosmos 1603 3.7 18:36:53 10° NNW 18:42:37 87° WSW 18:48:15 10° SSE
Starlink E 2.9 18:39:54 10° WNW 18:43:03 81° WSW 18:43:03 81° WSW
Cosmos 2297 Rocket 3.5 18:39:53 10° WSW 18:45:07 37° NW 18:50:23 10° NNE
Ariane Rocket 2.9 18:40:15 10° SSE 18:45:17 68° ENE 18:50:22 10° N
Starlink J 3.0 18:42:07 10° WNW 18:45:12 76° WSW 18:45:12 76° WSW
ARGOS 3.5 18:46:23 40° ENE 18:46:34 40° ENE 18:51:36 10° N
Starlink V 3.1 18:44:19 10° WNW 18:47:19 71° W 18:47:19 71° W
ERBS 3.7 18:46:49 10° WNW 18:49:39 29° NNW 18:49:39 29° NNW
Starlink H 3.3 18:46:33 10° WNW 18:49:28 66° W 18:49:28 66° W
Cosmos 2263 Rocket 2.4 18:45:42 10° S 18:50:56 44° ESE 18:51:06 43° ESE
Starlink F 3.4 18:48:48 10° WNW 18:51:38 62° W 18:51:38 62° W
Starlink G 3.5 18:51:02 10° WNW 18:53:47 58° W 18:53:47 58° W
ADEOS Rocket 3.3 18:48:55 10° NNE 18:55:38 66° ESE 19:03:00 10° S
Starlink L 3.7 18:53:15 10° WNW 18:55:56 54° W 18:55:56 54° W
CZ-2C R/B 3.5 18:57:35 45° ENE 18:57:35 45° ENE 19:02:58 10° N
Cosmos 614 Rocket 4.0 18:52:59 10° NNW 18:58:13 79° WSW 19:02:55 13° SSE
Cosmos 2227 Rocket 3.6 18:53:31 10° WSW 18:58:37 34° NW 19:03:28 11° NNE
Starlink A 3.8 18:55:30 10° WNW 18:58:05 50° W 18:58:05 50° W
Starlink R 4.0 18:57:46 10° WNW 19:00:15 47° W 19:00:15 47° W
SL-24 R/B 4.4 19:02:50 60° E 19:03:01 61° ENE 19:08:21 10° N
Starlink K 4.1 18:59:59 10° WNW 19:02:24 44° W 19:02:24 44° W
Cosmos 2056 Rocket 4.2 19:00:12 10° S 19:03:46 38° SSE 19:03:46 38° SSE
Starlink M 4.2 19:02:12 10° WNW 19:04:32 41° W 19:04:32 41° W
COSMO-SKYMED 1 4.3 19:03:32 10° N 19:07:24 32° WNW 19:11:16 10° SW
Cosmos 2084 3.9 19:03:16 10° NW 19:06:58 52° N 19:06:58 52° N
USA 238 DEB 3.8 19:02:08 10° SSW 19:08:29 49° ESE 19:08:59 48° ESE
USA 238 3.8 19:02:16 10° SSW 19:08:37 48° ESE 19:09:02 48° ESE
CZ-4 R/B 3.9 19:05:58 10° SSW 19:09:17 23° W 19:12:40 10° NW
Cosmos 1943 3.4 19:06:28 10° NNW 19:12:07 70° WSW 19:15:42 23° SSE
Cosmos 1023 Rocket 4.4 19:08:52 10° NNW 19:14:11 85° WSW 19:15:40 49° SSE
Cosmos 1821 Rocket 4.0 19:08:44 10° SSW 19:15:06 83° W 19:21:25 10° N
ATLAS CENTAUR R/B 4.3 19:13:50 10° W 19:15:30 12° WSW 19:17:08 10° SW
Timation 1 Rocket 4.2 19:13:42 10° SSW 19:19:34 65° ESE 19:19:34 65° ESE
Cosmos 44 Rocket 3.3 19:18:11 10° SW 19:22:39 76° WSW 19:22:39 76° WSW
Cosmos 1140 Rocket 3.6 19:19:46 10° NNW 19:25:01 73° WSW 19:26:10 54° S
SL-8 R/B 4.1 19:24:43 10° W 19:28:50 57° SW 19:28:50 57° SW
H-2A R/B 2.1 19:36:15 70° NW 19:36:15 70° NW 19:40:57 10° NNW
Cosmos 2123 Rocket 4.2 19:32:46 10° NNW 19:39:04 71° W 19:45:17 10° S
Cosmos 967 Rocket 4.5 19:34:36 10° NW 19:41:07 80° SW 19:41:54 69° S
ATLAS 5 CENTAUR R/B 3.7 19:41:40 10° NW 19:44:43 24° N 19:44:43 24° N
Cosmos 1934 Rocket 3.9 19:40:27 10° SSW 19:46:31 76° WNW 19:52:36 10° N
Cosmos 2082 Rocket 4.3 19:43:27 10° N 19:44:58 14° N 19:44:58 14° N
Cosmos 1954 Rocket 4.4 19:44:10 10° NNW 19:48:50 60° WNW 19:48:50 60° WNW
USA 267 3.5 19:51:11 53° NNE 19:51:55 56° N 19:58:17 10° W
ISS -0.4 19:51:49 10° W 19:52:18 13° W 19:52:18 13° W
NOSS 3-2 (A) 4.5 20:12:29 10° SW 20:15:45 36° SW 20:15:45 36° SW
Cosmos 2263 Rocket 3.8 20:29:42 10° WSW 20:32:52 30° W 20:32:52 30° W
